Clarksburg, WV

12:58 AM EDT on September 25, 2017 (GMT -0400)
Benedum

Weather History for KCKB - January, 2013

Change the Weather History Date:

Monday, January 7, 2013

  Actual Average Record
Temperature  
Mean Temperature 29 °F -  
Max Temperature 34 °F 39 °F 73 °F (1946)
Min Temperature 23 °F 22 °F -12 °F (1942)
Degree Days  
Heating Degree Days 36    
Moisture  
Dew Point 24 °F    
Average Humidity 78    
Maximum Humidity 88    
Minimum Humidity 64    
Precipitation  
Precipitation 0.00 in - - ()
Sea Level Pressure  
Sea Level Pressure 30.39 in    
Wind  
Wind Speed 7 mph (WSW)    
Max Wind Speed 14 mph    
Max Gust Speed -    
Visibility 7 miles    
Events      
Averages and records for this station are not official NWS values.
T = Trace of Precipitation, MM = Missing Value Source: NWS Daily Summary

Daily Weather History Graph

Daily Weather History Graph

Search for Another Location

Airport or City:

Trip Planner

Search our weather history database for the weather conditions in past years. The results will help you decide how hot, cold, wet, or windy it might be!

Date:

Astronomy

Jan. 07, 2013 Rise Set
Actual Time 7:40 AM EST 5:14 PM EST
Civil Twilight 7:11 AM EST 5:43 PM EST
Nautical Twilight 6:37 AM EST 6:17 PM EST
Astronomical Twilight 6:05 AM EST 6:49 PM EST
Moon 3:03 AM EST (1/7) 1:23 PM EST (1/7)
Length of Visible Light 10h 32m
Length of Day
9h 33m
Waning Crescent, 23% of the Moon is Illuminated
Jan 7
Waning Crescent
Jan 11
New
Jan 18
First Quarter
Jan 26
Full
Feb 3
Last Quarter

Hourly Weather History & Observations

Time (EST) Temp. Windchill Dew Point Humidity Pressure Visibility Wind Dir Wind Speed Gust Speed Precip Events Conditions
12:53 AM 33.1 °F 23.4 °F 28.0 °F 82% 30.26 in 10.0 mi WNW 13.8 mph - N/A   Overcast
1:53 AM 32.0 °F 23.6 °F 28.0 °F 85% 30.29 in 8.0 mi West 10.4 mph - N/A   Overcast
2:53 AM 30.9 °F 22.8 °F 27.0 °F 85% 30.32 in 7.0 mi West 9.2 mph - N/A   Overcast
3:53 AM 30.9 °F 22.8 °F 25.0 °F 79% 30.34 in 7.0 mi WNW 9.2 mph - N/A   Overcast
4:53 AM 30.0 °F 23.2 °F 24.1 °F 79% 30.35 in 8.0 mi WNW 6.9 mph - N/A   Overcast
5:05 AM 30.2 °F 24.3 °F 24.8 °F 80% 30.33 in 7.0 mi WNW 5.8 mph - N/A   Overcast
5:53 AM 30.0 °F 25.2 °F 24.1 °F 79% 30.35 in 7.0 mi West 4.6 mph - N/A   Overcast
6:22 AM 30.2 °F 26.7 °F 24.8 °F 80% 30.36 in 7.0 mi West 3.5 mph - N/A   Overcast
6:53 AM 30.0 °F 23.2 °F 24.1 °F 79% 30.40 in 7.0 mi West 6.9 mph - N/A   Overcast
7:53 AM 30.0 °F 23.2 °F 24.1 °F 79% 30.42 in 7.0 mi WSW 6.9 mph - N/A   Overcast
8:04 AM 30.2 °F 25.4 °F 24.8 °F 80% 30.41 in 5.0 mi WSW 4.6 mph - N/A   Haze
8:14 AM 30.2 °F 24.3 °F 24.8 °F 80% 30.41 in 5.0 mi WSW 5.8 mph - N/A   Haze
8:21 AM 30.2 °F 24.3 °F 24.8 °F 80% 30.41 in 5.0 mi West 5.8 mph - N/A   Haze
8:41 AM 30.2 °F 23.4 °F 24.8 °F 80% 30.42 in 5.0 mi SSW 6.9 mph - N/A   Haze
8:53 AM 30.0 °F 22.4 °F 24.1 °F 79% 30.45 in 5.0 mi SW 8.1 mph - N/A   Haze
9:53 AM 30.0 °F 23.2 °F 24.1 °F 79% 30.48 in 5.0 mi SW 6.9 mph - N/A   Haze
10:53 AM 30.9 °F 25.2 °F 25.0 °F 79% 30.50 in 5.0 mi SW 5.8 mph - N/A   Haze
11:16 AM 30.2 °F 25.4 °F 24.8 °F 80% 30.47 in 5.0 mi SW 4.6 mph - N/A   Haze
11:53 AM 32.0 °F - 24.1 °F 73% 30.47 in 6.0 mi Calm Calm - N/A   Haze
12:53 PM 32.0 °F - 23.0 °F 69% 30.43 in 8.0 mi Calm Calm - N/A   Overcast
1:53 PM 32.0 °F 27.5 °F 23.0 °F 69% 30.42 in 9.0 mi South 4.6 mph - N/A   Overcast
2:53 PM 33.1 °F - 21.9 °F 64% 30.41 in 10.0 mi Calm Calm - N/A   Overcast
3:53 PM 34.0 °F - 23.0 °F 64% 30.41 in 10.0 mi Calm Calm - N/A   Scattered Clouds
4:53 PM 32.0 °F 28.7 °F 21.9 °F 66% 30.40 in 10.0 mi SSW 3.5 mph - N/A   Clear
6:53 PM 28.0 °F - 21.0 °F 75% 30.38 in 10.0 mi Calm Calm - N/A   Clear
7:53 PM 27.0 °F - 21.0 °F 78% 30.37 in 9.0 mi Calm Calm - N/A   Clear
8:53 PM 25.0 °F - 21.9 °F 88% 30.37 in 7.0 mi Calm Calm - N/A   Clear
9:53 PM 24.1 °F - 19.9 °F 84% 30.35 in 7.0 mi Calm Calm - N/A   Clear
10:53 PM 24.1 °F - 19.0 °F 81% 30.33 in 7.0 mi Calm Calm - N/A   Clear
11:53 PM 23.0 °F - 19.9 °F 88% 30.30 in 6.0 mi Calm Calm - N/A   Clear